Year,Month,Day,Hour,Minute,Value (Times are PST for temperature in C)
2008,11,19,08,01,7.60
2008,11,19,08,02,7.60
2008,11,19,08,03,7.70
2008,11,19,08,04,7.80
2008,11,19,08,05,7.80
2008,11,19,08,06,7.80
2008,11,19,08,07,7.80
2008,11,19,08,08,7.80
2008,11,19,08,09,7.80
2008,11,19,08,10,7.80
2008,11,19,08,11,7.80
2008,11,19,08,12,7.80
2008,11,19,08,13,7.80
2008,11,19,08,14,7.80
2008,11,19,08,15,7.80
2008,11,19,08,16,7.80
2008,11,19,08,17,7.80
2008,11,19,08,18,7.80
2008,11,19,08,19,7.80
2008,11,19,08,20,7.80
2008,11,19,08,21,7.80
2008,11,19,08,22,7.90
2008,11,19,08,23,7.90
2008,11,19,08,24,7.90
2008,11,19,08,25,7.90
2008,11,19,08,26,7.90
2008,11,19,08,27,8.00
2008,11,19,08,28,8.00
2008,11,19,08,29,8.10
2008,11,19,08,30,8.10
2008,11,19,08,31,8.20
2008,11,19,08,32,8.20
2008,11,19,08,33,8.20
2008,11,19,08,34,8.20
2008,11,19,08,35,8.20
2008,11,19,08,36,8.30
2008,11,19,08,37,8.30
2008,11,19,08,38,8.30
2008,11,19,08,39,8.30
2008,11,19,08,40,8.30
2008,11,19,08,41,8.30
2008,11,19,08,42,8.30
2008,11,19,08,43,8.40
2008,11,19,08,44,8.40
2008,11,19,08,45,8.40
2008,11,19,08,46,8.40
2008,11,19,08,47,8.50
2008,11,19,08,48,8.50
2008,11,19,08,49,8.50
2008,11,19,08,50,8.50
2008,11,19,08,51,8.60
2008,11,19,08,52,8.60
2008,11,19,08,53,8.60
2008,11,19,08,54,8.70
2008,11,19,08,55,8.70
2008,11,19,08,56,8.70
2008,11,19,08,57,8.70
2008,11,19,08,58,8.70
2008,11,19,08,59,8.70
2008,11,19,09,00,8.70
2008,11,19,09,01,8.70
2008,11,19,09,02,8.70
2008,11,19,09,03,8.70
2008,11,19,09,04,8.70
2008,11,19,09,05,8.70
2008,11,19,09,06,8.70
2008,11,19,09,07,8.80
2008,11,19,09,08,8.80
2008,11,19,09,09,8.80
2008,11,19,09,10,8.80
2008,11,19,09,11,8.80
2008,11,19,09,12,8.90
2008,11,19,09,13,8.90
2008,11,19,09,14,8.90
2008,11,19,09,15,8.90
2008,11,19,09,16,8.90
2008,11,19,09,17,9.00
2008,11,19,09,18,9.00
2008,11,19,09,19,9.00
2008,11,19,09,20,9.00
2008,11,19,09,21,9.00
2008,11,19,09,22,9.00
2008,11,19,09,23,9.10
2008,11,19,09,24,9.10
2008,11,19,09,25,9.10
2008,11,19,09,26,9.10
2008,11,19,09,27,9.10
2008,11,19,09,28,9.10
2008,11,19,09,29,9.20
2008,11,19,09,30,9.20
2008,11,19,09,31,9.20
2008,11,19,09,32,9.20
2008,11,19,09,33,9.20
2008,11,19,09,34,9.20
2008,11,19,09,35,9.20
2008,11,19,09,36,9.20
2008,11,19,09,37,9.20
2008,11,19,09,38,9.30
2008,11,19,09,39,9.30
2008,11,19,09,40,9.30
2008,11,19,09,41,9.30
2008,11,19,09,42,9.40
2008,11,19,09,43,9.40
2008,11,19,09,44,9.40
2008,11,19,09,45,9.40
2008,11,19,09,46,9.40
2008,11,19,09,47,9.50
2008,11,19,09,48,9.50
2008,11,19,09,49,9.50
2008,11,19,09,50,9.50
2008,11,19,09,51,9.60
2008,11,19,09,52,9.60
2008,11,19,09,53,9.60
2008,11,19,09,54,9.60
2008,11,19,09,55,9.60
2008,11,19,09,56,9.60
2008,11,19,09,57,9.60
2008,11,19,09,58,9.70
2008,11,19,09,59,9.70
2008,11,19,10,00,9.70
2008,11,19,10,01,9.70
2008,11,19,10,02,9.70
2008,11,19,10,03,9.70
2008,11,19,10,04,9.80
2008,11,19,10,05,9.80
2008,11,19,10,06,9.70
2008,11,19,10,07,9.80
2008,11,19,10,08,9.80
2008,11,19,10,09,9.80
2008,11,19,10,10,9.80
2008,11,19,10,11,9.80
2008,11,19,10,12,9.80
2008,11,19,10,13,9.80
2008,11,19,10,14,9.80
2008,11,19,10,15,9.90
2008,11,19,10,16,9.90
2008,11,19,10,17,9.90
2008,11,19,10,18,9.90
2008,11,19,10,19,10.00
2008,11,19,10,20,10.10
2008,11,19,10,21,10.10
2008,11,19,10,22,10.10
2008,11,19,10,23,10.10
2008,11,19,10,24,10.10
2008,11,19,10,25,10.10
2008,11,19,10,26,10.10
2008,11,19,10,27,10.10
2008,11,19,10,28,10.10
2008,11,19,10,29,10.10
2008,11,19,10,30,10.20
2008,11,19,10,31,10.20
2008,11,19,10,32,10.20
2008,11,19,10,33,10.20
2008,11,19,10,34,10.30
2008,11,19,10,35,10.30
2008,11,19,10,36,10.30
2008,11,19,10,37,10.40
2008,11,19,10,38,10.40
2008,11,19,10,39,10.40
2008,11,19,10,40,10.40
2008,11,19,10,41,10.40
2008,11,19,10,42,10.40
2008,11,19,10,43,10.40
2008,11,19,10,44,10.40
2008,11,19,10,45,10.40
2008,11,19,10,46,10.40
2008,11,19,10,47,10.40
2008,11,19,10,48,10.40
2008,11,19,10,49,10.40
2008,11,19,10,50,10.40
2008,11,19,10,51,10.60
2008,11,19,10,52,10.60
2008,11,19,10,53,10.60
2008,11,19,10,54,10.60
2008,11,19,10,55,10.60
2008,11,19,10,56,10.60
2008,11,19,10,57,10.70
2008,11,19,10,58,10.70
2008,11,19,10,59,10.80
2008,11,19,11,00,10.80
2008,11,19,11,01,10.80
2008,11,19,11,02,10.80
2008,11,19,11,03,10.90
2008,11,19,11,04,10.90
2008,11,19,11,05,10.90
2008,11,19,11,06,10.90
2008,11,19,11,07,10.90
2008,11,19,11,08,10.90
2008,11,19,11,09,10.90
2008,11,19,11,10,10.90
2008,11,19,11,11,10.90
2008,11,19,11,12,10.90
2008,11,19,11,13,10.90
2008,11,19,11,14,11.00
2008,11,19,11,15,11.10
2008,11,19,11,16,11.10
2008,11,19,11,17,11.10
2008,11,19,11,18,11.10
2008,11,19,11,19,11.10
2008,11,19,11,20,11.10
2008,11,19,11,21,11.10
2008,11,19,11,22,11.20
2008,11,19,11,23,11.20
2008,11,19,11,24,11.20
2008,11,19,11,25,11.20
2008,11,19,11,26,11.20
2008,11,19,11,27,11.20
2008,11,19,11,28,11.20
2008,11,19,11,29,11.20
2008,11,19,11,30,11.20
2008,11,19,11,31,11.20
2008,11,19,11,32,11.20
2008,11,19,11,33,11.30
2008,11,19,11,34,11.30
2008,11,19,11,35,11.40
2008,11,19,11,36,11.40
2008,11,19,11,37,11.40
2008,11,19,11,38,11.40
2008,11,19,11,39,11.40
2008,11,19,11,40,11.40
2008,11,19,11,41,11.30
2008,11,19,11,42,11.30
2008,11,19,11,43,11.40
2008,11,19,11,44,11.40
2008,11,19,11,45,11.40
2008,11,19,11,46,11.40
2008,11,19,11,47,11.40
2008,11,19,11,48,11.40
2008,11,19,11,49,11.50
2008,11,19,11,50,11.60
2008,11,19,11,51,11.60
2008,11,19,11,52,11.60
2008,11,19,11,53,11.60
2008,11,19,11,54,11.60
2008,11,19,11,55,11.60
2008,11,19,11,56,11.60
2008,11,19,11,57,11.60
2008,11,19,11,58,11.60
2008,11,19,11,59,11.60
2008,11,19,12,00,11.60
2008,11,19,12,01,11.60
2008,11,19,12,02,11.60
2008,11,19,12,03,11.60
2008,11,19,12,04,11.60
2008,11,19,12,05,11.60
2008,11,19,12,06,11.60
2008,11,19,12,07,11.60
2008,11,19,12,08,11.60
2008,11,19,12,09,11.60
2008,11,19,12,10,11.60
2008,11,19,12,11,11.60
2008,11,19,12,12,11.60
2008,11,19,12,13,11.70
2008,11,19,12,14,11.70
2008,11,19,12,15,11.70
2008,11,19,12,16,11.70
2008,11,19,12,17,11.70
2008,11,19,12,18,11.70
2008,11,19,12,19,11.70
2008,11,19,12,20,11.70
2008,11,19,12,21,11.70
2008,11,19,12,22,11.70
2008,11,19,12,23,11.60
2008,11,19,12,24,11.60
2008,11,19,12,25,11.60
2008,11,19,12,26,11.60
2008,11,19,12,27,11.60
2008,11,19,12,28,11.60
2008,11,19,12,29,11.70
2008,11,19,12,30,11.70
2008,11,19,12,31,11.80
2008,11,19,12,32,11.80
2008,11,19,12,33,11.80
2008,11,19,12,34,11.80
2008,11,19,12,35,11.80
2008,11,19,12,36,11.80
2008,11,19,12,37,11.80
2008,11,19,12,38,11.90
2008,11,19,12,39,11.90
2008,11,19,12,40,11.90
2008,11,19,12,41,11.80
2008,11,19,12,42,11.80
2008,11,19,12,43,11.90
2008,11,19,12,44,11.80
2008,11,19,12,45,11.80
2008,11,19,12,46,11.80
2008,11,19,12,47,11.80
2008,11,19,12,48,11.80
2008,11,19,12,49,11.80
2008,11,19,12,50,11.90
2008,11,19,12,51,11.90
2008,11,19,12,52,11.90
2008,11,19,12,53,11.90
2008,11,19,12,54,12.00
2008,11,19,12,55,12.00
2008,11,19,12,56,12.00
2008,11,19,12,57,12.00
2008,11,19,12,58,12.00
2008,11,19,12,59,12.00
2008,11,19,13,00,12.00
2008,11,19,13,01,12.00
2008,11,19,13,02,12.10
2008,11,19,13,03,12.10
2008,11,19,13,04,12.20
2008,11,19,13,05,12.20
2008,11,19,13,06,12.20
2008,11,19,13,07,12.20
2008,11,19,13,08,12.30
2008,11,19,13,09,12.20
2008,11,19,13,10,12.20
2008,11,19,13,11,12.20
2008,11,19,13,12,12.20
2008,11,19,13,13,12.10
2008,11,19,13,14,12.10
2008,11,19,13,15,12.10
2008,11,19,13,16,12.10
2008,11,19,13,17,12.10
2008,11,19,13,18,12.20
2008,11,19,13,19,12.20
2008,11,19,13,20,12.20
2008,11,19,13,21,12.20
2008,11,19,13,22,12.20
2008,11,19,13,23,12.20
2008,11,19,13,24,12.20
2008,11,19,13,25,12.20
2008,11,19,13,26,12.20
2008,11,19,13,27,12.10
2008,11,19,13,28,12.10
2008,11,19,13,29,12.10
2008,11,19,13,30,12.20
2008,11,19,13,31,12.20
2008,11,19,13,32,12.20
2008,11,19,13,33,12.20
2008,11,19,13,34,12.20
2008,11,19,13,35,12.20
2008,11,19,13,36,12.30
2008,11,19,13,37,12.30
2008,11,19,13,38,12.20
2008,11,19,13,39,12.20
2008,11,19,13,40,12.20
2008,11,19,13,41,12.10
2008,11,19,13,42,12.10
2008,11,19,13,43,12.10
2008,11,19,13,44,12.10
2008,11,19,13,45,12.10
2008,11,19,13,46,12.20
2008,11,19,13,47,12.20
2008,11,19,13,48,12.30
2008,11,19,13,49,12.30
2008,11,19,13,50,12.30
2008,11,19,13,51,12.30
2008,11,19,13,52,12.30
2008,11,19,13,53,12.30
2008,11,19,13,54,12.30
2008,11,19,13,55,12.30
2008,11,19,13,56,12.30
2008,11,19,13,57,12.30
2008,11,19,13,58,12.30
2008,11,19,13,59,12.30
2008,11,19,14,00,12.30
2008,11,19,14,01,12.30
2008,11,19,14,02,12.30
2008,11,19,14,03,12.30
2008,11,19,14,04,12.30
2008,11,19,14,05,12.30
2008,11,19,14,06,12.30
2008,11,19,14,07,12.30
2008,11,19,14,08,12.30
2008,11,19,14,09,12.30
2008,11,19,14,10,12.30
2008,11,19,14,11,12.30
2008,11,19,14,12,12.30
2008,11,19,14,13,12.30
2008,11,19,14,14,12.30
2008,11,19,14,15,12.30
2008,11,19,14,16,12.30
2008,11,19,14,17,12.30
2008,11,19,14,18,12.30
2008,11,19,14,19,12.30
2008,11,19,14,20,12.30
2008,11,19,14,21,12.30
2008,11,19,14,22,12.30
2008,11,19,14,23,12.30
2008,11,19,14,24,12.30
2008,11,19,14,25,12.20
2008,11,19,14,26,12.20
2008,11,19,14,27,12.30
2008,11,19,14,28,12.30
2008,11,19,14,29,12.30
2008,11,19,14,30,12.30
2008,11,19,14,31,12.30
2008,11,19,14,32,12.30
2008,11,19,14,33,12.20
2008,11,19,14,34,12.20
2008,11,19,14,35,12.20
2008,11,19,14,36,12.20
2008,11,19,14,37,12.20
2008,11,19,14,38,12.20
2008,11,19,14,39,12.20
2008,11,19,14,40,12.20
2008,11,19,14,41,12.20
2008,11,19,14,42,12.20
2008,11,19,14,43,12.20
2008,11,19,14,44,12.20
2008,11,19,14,45,12.10
2008,11,19,14,46,12.10
2008,11,19,14,47,12.10
2008,11,19,14,48,12.10
2008,11,19,14,49,12.10
2008,11,19,14,50,12.10
2008,11,19,14,51,12.10
2008,11,19,14,52,12.00
2008,11,19,14,53,12.00
2008,11,19,14,54,12.00
2008,11,19,14,55,12.10
2008,11,19,14,56,12.10
2008,11,19,14,57,12.10
2008,11,19,14,58,12.10
2008,11,19,14,59,12.10
2008,11,19,15,00,12.10
2008,11,19,15,01,12.20
2008,11,19,15,02,12.20
2008,11,19,15,03,12.20
2008,11,19,15,04,12.20
2008,11,19,15,05,12.20
2008,11,19,15,06,12.20
2008,11,19,15,07,12.20
2008,11,19,15,08,12.20
2008,11,19,15,09,12.20
2008,11,19,15,10,12.20
2008,11,19,15,11,12.20
2008,11,19,15,12,12.20
2008,11,19,15,13,12.20
2008,11,19,15,14,12.20
2008,11,19,15,15,12.20
2008,11,19,15,16,12.20
2008,11,19,15,17,12.20
2008,11,19,15,18,12.10
2008,11,19,15,19,12.10
2008,11,19,15,20,12.10
2008,11,19,15,21,12.00
2008,11,19,15,22,12.00
2008,11,19,15,23,12.00
2008,11,19,15,24,12.00
2008,11,19,15,25,11.90
2008,11,19,15,26,11.90
2008,11,19,15,27,11.80
2008,11,19,15,28,11.80
2008,11,19,15,29,11.80
2008,11,19,15,30,11.80
2008,11,19,15,31,11.80
2008,11,19,15,32,11.80
2008,11,19,15,33,11.80
2008,11,19,15,34,11.70
2008,11,19,15,35,11.70
2008,11,19,15,36,11.60
2008,11,19,15,37,11.60
2008,11,19,15,38,11.60
2008,11,19,15,39,11.60
2008,11,19,15,40,11.60
2008,11,19,15,41,11.60
2008,11,19,15,42,11.60
2008,11,19,15,43,11.40
2008,11,19,15,44,11.40
2008,11,19,15,45,11.40
2008,11,19,15,46,11.40
2008,11,19,15,47,11.40
2008,11,19,15,48,11.40
2008,11,19,15,49,11.40
2008,11,19,15,50,11.40
2008,11,19,15,51,11.40
2008,11,19,15,52,11.30
2008,11,19,15,53,11.30
2008,11,19,15,54,11.30
2008,11,19,15,55,11.30
2008,11,19,15,56,11.30
2008,11,19,15,57,11.30
2008,11,19,15,58,11.20
2008,11,19,15,59,11.20
2008,11,19,16,00,11.20
2008,11,19,16,01,11.20
2008,11,19,16,02,11.20
2008,11,19,16,03,11.20
2008,11,19,16,04,11.10
2008,11,19,16,05,11.10
2008,11,19,16,06,11.10
2008,11,19,16,07,11.10
2008,11,19,16,08,11.10
2008,11,19,16,09,11.10
2008,11,19,16,10,11.10
2008,11,19,16,11,11.10
2008,11,19,16,12,11.00
2008,11,19,16,13,10.90
2008,11,19,16,14,10.90
2008,11,19,16,15,10.90
2008,11,19,16,16,10.90
2008,11,19,16,17,10.90
2008,11,19,16,18,10.90
2008,11,19,16,19,10.90
2008,11,19,16,20,10.90
2008,11,19,16,21,10.90
2008,11,19,16,22,10.90
2008,11,19,16,23,10.90
2008,11,19,16,24,10.90
2008,11,19,16,25,10.90
2008,11,19,16,26,10.90
